Regional Weather Roundup
Issued by NWS

Home | Current Version | Previous Version | Graphics & Text | Print | Product List | Glossary On
Versions: 1 2 3 4 5 6 7 8 9 10 11 12 13 14 15 16 17 18 19 20 21 22 23 24 25 26 27 28 29 30 31 32 33 34 35 36 37 38 39 40 41 42 43 44 45 46 47 48 49 50
000
ASUS45 KBOI 021210
RWRID

IDAHO REGIONAL WEATHER ROUNDUP
NATIONAL WEATHER SERVICE BOISE ID
600 AM MDT THU JUL 02 2015

NOTE: "FAIR" INDICATES FEW OR NO CLOUDS BELOW 12000 FEET
WITH NO SIGNIFICANT WEATHER AND/OR OBSTRUCTIONS TO VISIBILITY

IDZ012-014-021300-
SOUTHWEST IDAHO


CITY           SKY/WX    TMP DP  RH WIND       PRES   REMARKS
BOISE          CLEAR     70  48  45 CALM      29.99R
CALDWELL       CLEAR     72  45  37 W5        29.98S
MOUNTAIN HOME  CLEAR     73  43  34 NW9       29.98R
$$

IDZ016-017-021300-
SOUTHCENTRAL IDAHO


CITY           SKY/WX    TMP DP  RH WIND       PRES   REMARKS
BURLEY         CLEAR     59  51  75 CALM      30.05S
JEROME         CLEAR     64  45  49 E6        30.05S
TWIN FALLS     CLEAR     76  41  28 S12       30.03R
$$

IDZ019>023-021300-
SOUTHEAST IDAHO


CITY           SKY/WX    TMP DP  RH WIND       PRES   REMARKS
IDAHO FALLS    CLEAR     57  53  86 N6        30.11R
POCATELLO      CLEAR     60  52  74 S9        30.09R
REXBURG        CLEAR     57  52  83 NE5       30.12R
$$

IDZ006-010-011-018-031-032-021300-
CENTRAL IDAHO MOUNTAINS


CITY           SKY/WX    TMP DP  RH WIND       PRES   REMARKS
MCCALL         CLEAR     53  45  74 CALM      30.15S
STANLEY          N/A     41  33  73 SE3       30.29S
SALMON         PTCLDY    54  43  66 CALM      30.13S
CHALLIS        CLEAR     57  41  55 CALM      30.18R
$$

IDZ002-004-006-007-026-021300-
NORTHERN IDAHO


CITY           SKY/WX    TMP DP  RH WIND       PRES   REMARKS
LEWISTON       CLEAR     68  45  43 CALM      29.96S
LOWELL           N/A     60  53  77 NW3       30.05S
COEUR D`ALENE  CLEAR     61  48  63 NE6       30.02S
MULLAN PASS    CLEAR     66  38  35 S5        30.24S
$$


USA.gov is the U.S. government's official web portal to all federal, state and local government web resources and services.